Regional Weather Roundup
Issued by NWS

Home | Current Version | Previous Version | Graphics & Text | Print | Product List | Glossary On
Versions: 1 2 3 4 5 6 7 8 9 10 11 12 13 14 15 16 17 18 19 20 21 22 23 24 25 26 27 28 29 30 31 32 33 34 35 36 37 38 39 40 41 42 43 44 45 46 47 48 49 50
000
ASUS45 KPSR 010900
RWRAZ

ARIZONA HOURLY REGIONAL WEATHER ROUNDUP
NATIONAL WEATHER SERVICE PHOENIX AZ
200 AM MST TUE SEP 01 2015

NOTE: FAIR INDICATES FEW OR NO CLOUDS BELOW 12,000 FEET WITH NO
SIGNIFICANT WEATHER AND/OR OBSTRUCTIONS TO VISIBILITY.

AZZ001>003-036-011000-
NORTHWEST ARIZONA

CITY           SKY/WX    TMP DP  RH WIND       PRES   REMARKS
KINGMAN        CLEAR     79  52  38 S10       29.98F
$$

AZZ004>008-015-016-018-011000-
NORTH CENTRAL ARIZONA

CITY           SKY/WX    TMP DP  RH WIND       PRES   REMARKS
GRAND CANYON   PTCLDY    60  52  74 S7          N/A
WILLIAMS       PTCLDY    59  52  77 SE9       30.32S
PRESCOTT       PTCLDY    66  57  72 SE12      30.16F
FLAGSTAFF      NOT AVBL
PAYSON         MOCLDY    63  59  88 NE6       30.21F
PAGE           PTCLDY    71  54  54 W5        30.09S
$$

AZZ009>014-017-011000-
NORTHEAST ARIZONA

CITY           SKY/WX    TMP DP  RH WIND       PRES   REMARKS
WINSLOW        NOT AVBL
SAINT JOHNS    CLOUDY    63  54  72 NW6       30.20F
WINDOW ROCK    CLOUDY    60  51  72 N3        30.27F
SHOW LOW       CLOUDY    55  54  94 S18       30.26F
$$

AZZ023-011000-
GREATER PHOENIX AREA

CITY           SKY/WX    TMP DP  RH WIND       PRES   REMARKS
PHOENIX          N/A    N/A N/A N/A MISG      29.91F
LUKE AFB       CLEAR     80  68  66 S7        29.92F
DEER VALLEY    CLEAR     83  59  44 CALM      29.93F
SCOTTSDALE     PTCLDY    82  60  47 S3        29.94F
$$

AZZ027-028-011000-
SOUTHWEST MARICOPA COUNTY AND PINAL COUNTY

CITY           SKY/WX    TMP DP  RH WIND       PRES   REMARKS
CASA GRANDE    MOCLDY    75  66  73 E14       29.93F
GILA BEND      FAIR      85  64  49 E12       29.87F
$$

AZZ503-504-507>509-011000-
SOUTHEAST ARIZONA

CITY           SKY/WX    TMP DP  RH WIND       PRES   REMARKS
TUCSON         CLOUDY    71  66  84 E15G22    30.07F THUNDER
DAVIS-MONTHAN  MOCLDY    70  65  85 NE14      30.05F THUNDER
NOGALES        MOCLDY    66  61  84 CALM      30.11S
SIERRA VISTA   PTCLDY    68  57  67 N7        30.19S
SAFFORD        CLOUDY    69  66  90 NW10G24   30.06F
$$

AZZ020-021-025-026-031-011000-
SOUTHWEST ARIZONA

CITY           SKY/WX    TMP DP  RH WIND       PRES   REMARKS
YUMA           NOT AVBL
$$

CAZ031-033-041-043-047-048-061-011000-
SOUTHERN CALIFORNIA

CITY           SKY/WX    TMP DP  RH WIND       PRES   REMARKS
DOWNTOWN L.A.  CLOUDY    71  61  70 VRB3      29.90F
L.A. AIRPORT   MOCLDY    71  65  81 CALM      29.90F
SAN DIEGO      CLOUDY    70  61  73 S6        29.93F
BURBANK        CLOUDY    70  63  78 SE5       29.91F
ONTARIO        MOCLDY    66  61  84 W6        29.93S
RIVERSIDE      MOCLDY    66  61  84 W5        29.93S
PALM SPRINGS   CLEAR     81  45  28 CALM      29.78S
EL CENTRO NAS  CLEAR     84  32  15 NW5       29.75F
IMPERIAL       CLEAR     88  33  14 N6        29.73F
BLYTHE         CLEAR     86  66  51 S8        29.78S
$$

NVZ020-UTZ003-011000-
SOUTHERN NEVADA-UTAH

CITY           SKY/WX    TMP DP  RH WIND       PRES   REMARKS
LAS VEGAS      NOT AVBL
SALT LAKE CITY MOCLDY    74  43  32 S10       29.95F
$$

NMZ009-TXZ055-011000-
NEW MEXICO-WEST TEXAS

CITY           SKY/WX    TMP DP  RH WIND       PRES   REMARKS
ALBUQUERQUE    CLOUDY    72  47  40 S3        30.16F
EL PASO        PTCLDY    76  45  33 E3        30.03R
$$


........................KEY........................
SKY/WX - SKY CONDITION/WEATHER
TMP    - TEMPERATURE IN FAHRENHEIT
DP     - DEW POINT IN FAHRENHEIT
RH     - RELATIVE HUMIDITY IN PERCENT
WIND   - DIRECTION AND SPEED IN MILES PER HOUR (MPH)
VRB    - VARIABLE WIND DIRECTION
PRES   - MEAN SEA LEVEL PRESSURE IN INCHES OF MERCURY
         F - FALLING PRESSURE   R - RISING PRESSURE
         S - STEADY PRESSURE
VSB    - VISIBILITY IN MILES
HX     - HEAT INDEX IN FAHRENHEIT
WCI    - WIND CHILL INDEX IN FAHRENHEIT
TC     - TEMPERATURE IN CELSIUS WHICH IS ALSO KNOWN AS
         TEMPERATURE IN CENTIGRADE
AFB    - AIR FORCE BASE
         LUKE AFB IS LUKE AIR FORCE BASE
         DAVIS-MONTHAN IS DAVIS-MONTHAN AIR FORCE BASE
NAS    - NAVAL AIR STATION
         EL CENTRO NAS IS EL CENTRO NAVAL AIR STATION
N/A    - NOT AVAILABLE



USA.gov is the U.S. government's official web portal to all federal, state and local government web resources and services.